[[{"header":{"parameterUnit":"m.s-1","parameterCategory":1,"la1":30.2991,"la2":30.254,"lo1":-89.0895,"lo2":-89.0444,"dy":0.0017,"dx":0.0017,"nx":28,"ny":28,"refTime":"2025-12-05T09:00:00:Z","depth":0,"parameterNumber":2,"parameterNumberName":"U-component_of_WINDS"},"data":[0,0,0,0,0,0,0,0,0,0,0,0,0,0,0,0,0,0,0,0,0,0,0,0,0,0,0,0,0,0,0,0,0,0,0,0,0,0,0,0,0,0,0,0,0,0,0,0,0,0,0,0,0,0,0,0,0,0,-0.5925,-0.5927,0,-0.6048,-0.6049,-0.6051,-0.6074,-0.6073,-0.6072,-0.6071,-0.6194,-0.6198,-0.6202,0,0,0,0,0,0,0,0,0,0,0,0,0,-0.5708,-0.5712,-0.5925,-0.5927,-0.5928,-0.6048,-0.6049,-0.6051,-0.6074,-0.6073,-0.6072,-0.6071,-0.6193,-0.6198,-0.6203,0,0,0,0,0,0,0,0,0,0,0,0,0,-0.5814,-0.5713,-0.5925,-0.5954,-0.5958,-0.6047,-0.6049,-0.6052,-0.6074,-0.6073,-0.6072,-0.607,-0.6191,-0.6197,-0.6203,-0.6271,0,0,-0.6223,-0.6225,0,0,0,0,0,0,0,0,-0.5808,-0.5822,-0.5948,-0.5952,-0.5957,-0.6044,-0.6018,-0.6125,-0.6075,-0.603,-0.6071,-0.6069,-0.6145,-0.6155,-0.6181,-0.6277,-0.6282,-0.6223,-0.6227,-0.623,-0.6231,0,0,0,0,0,0,0,-0.58,-0.5816,-0.5974,-0.595,-0.5955,-0.596,-0.5974,-0.6038,-0.6094,-0.6034,-0.6036,-0.605,-0.6147,-0.6175,-0.6184,-0.6284,-0.6223,-0.6229,-0.6232,-0.6235,-0.6441,-0.6442,0,0,0,0,0,0,-0.5788,-0.581,-0.597,-0.5977,-0.5877,-0.5965,-0.598,-0.6018,-0.6094,-0.6104,-0.6051,-0.6051,-0.6165,-0.6177,-0.6189,-0.6273,-0.623,-0.6236,-0.6239,-0.6439,-0.6441,-0.6443,0,0,0,0,0,0,-0.5783,-0.5802,-0.5965,-0.5894,-0.5916,-0.5971,-0.6012,-0.6021,-0.6049,-0.6107,-0.6117,-0.607,-0.6165,-0.618,-0.6251,-0.6278,-0.6238,-0.6244,-0.6437,-0.6439,-0.6442,-0.6442,0,0,0,0,0,0,-0.5777,-0.58,-0.5827,-0.5895,-0.5919,-0.6026,-0.6014,-0.6024,-0.606,-0.606,-0.6127,-0.6137,-0.6165,-0.6241,-0.6257,-0.6286,-0.6249,-0.6435,-0.6438,-0.6441,-0.644,-0.6444,-0.6448,0,0,0,0,0,-0.5769,-0.5822,-0.5829,-0.5848,-0.5954,-0.6027,-0.6041,-0.6073,-0.6062,-0.6089,-0.6126,-0.6134,-0.6272,-0.6248,-0.6266,-0.6297,-0.6433,-0.6437,-0.6441,-0.6438,-0.6443,-0.6448,0,0,0,0,0,0,-0.5756,-0.5832,-0.584,-0.5916,-0.5965,-0.6031,-0.6067,-0.6078,-0.613,-0.6128,-0.6165,-0.618,-0.6248,-0.628,-0.6252,-0.6366,-0.6352,-0.6359,-0.6343,-0.6349,-0.6353,-0.6344,-0.6254,0,0,0,0,0,-0.5762,-0.5816,-0.5879,-0.594,-0.5964,-0.6011,-0.6044,-0.6064,-0.6116,-0.6137,-0.6179,-0.6228,-0.6282,-0.6317,-0.637,-0.6444,-0.6458,-0.6474,-0.6478,-0.6481,-0.6487,-0.6528,-0.6535,-0.6455,-0.6455,-0.6455,0,0,-0.5775,-0.5823,-0.5855,-0.5939,-0.5979,-0.6033,-0.6028,-0.6086,-0.6126,-0.6145,-0.6215,-0.6247,-0.6304,-0.6376,-0.641,-0.6405,-0.6512,-0.6486,-0.6488,-0.6493,-0.6532,-0.654,-0.6547,-0.6458,-0.6457,-0.6457,0,0,-0.5826,-0.5868,-0.5924,-0.5964,-0.6026,-0.6056,-0.6069,-0.6134,-0.6156,-0.6227,-0.6242,-0.6289,-0.6382,-0.6422,-0.6455,-0.652,-0.6529,-0.6536,-0.6557,-0.6596,-0.6603,-0.6608,-0.6631,-0.6639,-0.6542,-0.6542,-0.6542,0,-0.5835,-0.5918,-0.5951,-0.6008,-0.6044,-0.6064,-0.6121,-0.6158,-0.6233,-0.6257,-0.6249,-0.6366,-0.6406,-0.6487,-0.6503,-0.6528,-0.6544,-0.6529,-0.6599,-0.6605,-0.6611,-0.6633,-0.6642,-0.6542,-0.6542,-0.6542,-0.6542,0,-0.5925,-0.5982,-0.6019,-0.6092,-0.6132,-0.6188,-0.6229,-0.6265,-0.6282,-0.6312,-0.6383,-0.6431,-0.6494,-0.6515,-0.6532,-0.6599,-0.6593,-0.6592,-0.6578,-0.6619,-0.664,-0.6649,-0.6543,-0.6543,-0.6543,-0.6542,0,0,-0.5972,-0.6062,-0.6076,-0.6109,-0.6177,-0.6221,-0.6277,-0.634,-0.637,-0.642,-0.6468,-0.6545,-0.6545,-0.6581,-0.6602,-0.6636,-0.6684,-0.6631,-0.6632,-0.6639,-0.676,-0.6761,-0.677,-0.669,-0.6692,-0.6693,-0.6755,0,-0.6032,-0.6135,-0.6166,-0.6251,-0.6304,-0.6323,-0.6372,-0.6419,-0.6449,-0.6497,-0.6529,-0.6584,-0.6578,-0.66,-0.6635,-0.6671,-0.6709,-0.6667,-0.6733,-0.6735,-0.6719,-0.6781,-0.6783,-0.6839,-0.6764,-0.6765,-0.6766,0,-0.6116,-0.6169,-0.626,-0.6321,-0.6344,-0.6388,-0.6447,-0.6493,-0.6545,-0.6565,-0.6605,-0.6623,-0.668,-0.6663,-0.6742,-0.6713,-0.6742,-0.6763,-0.6766,-0.6774,-0.6754,-0.6791,-0.6858,-0.6866,-0.678,-0.6779,-0.6778,0,-0.6142,-0.6235,-0.6302,-0.633,-0.6403,-0.6433,-0.6464,-0.6515,-0.655,-0.6601,-0.6624,-0.6681,-0.6712,-0.6754,-0.6786,-0.6771,-0.6863,-0.6848,-0.688,-0.6879,-0.6899,-0.6897,-0.6972,-0.6917,-0.6917,-0.6917,-0.6916,0,-0.6206,-0.6261,-0.6315,-0.6356,-0.6417,-0.6451,-0.6511,-0.6543,-0.6588,-0.6635,-0.6654,-0.6697,-0.6736,-0.6784,-0.6809,-0.687,-0.6884,-0.69,-0.6906,-0.6899,-0.6897,-0.6919,-0.6916,-0.6919,-0.6918,-0.6918,-0.6917,0,-0.6246,-0.6284,-0.6358,-0.6421,-0.6438,-0.648,-0.6533,-0.6573,-0.6603,-0.6662,-0.6677,-0.6724,-0.6781,-0.6817,-0.6889,-0.6905,-0.6973,-0.6978,-0.6956,-0.6959,-0.6988,-0.6985,-0.7079,-0.7093,-0.7029,-0.7029,-0.703,0,-0.6284,-0.6327,-0.6395,-0.6428,-0.646,-0.6513,-0.6549,-0.6583,-0.662,-0.6682,-0.6714,-0.6772,-0.6821,-0.691,-0.695,-0.7005,-0.7011,-0.704,-0.7019,-0.701,-0.7011,-0.7008,-0.7012,-0.7043,-0.7044,-0.7044,-0.7045,0,-0.6349,-0.6366,-0.6418,-0.6476,-0.6518,-0.6566,-0.6613,-0.6638,-0.668,-0.672,-0.6779,-0.6817,-0.689,-0.6947,-0.7005,-0.7036,-0.7047,-0.7051,-0.7061,-0.7054,-0.704,-0.7048,-0.6965,-0.7049,-0.7048,-0.7048,-0.7048,-0.7048,-0.639,-0.6428,-0.6482,-0.6539,-0.6578,-0.6621,-0.6661,-0.6696,-0.6746,-0.681,-0.6826,-0.6888,-0.6937,-0.7017,-0.7048,-0.7096,-0.7091,-0.7106,-0.711,-0.7113,-0.7114,-0.7032,-0.7106,-0.7106,-0.7106,-0.7106,-0.7106,0,-0.6455,-0.6491,-0.6542,-0.6608,-0.6652,-0.6659,-0.6711,-0.6747,-0.6802,-0.6847,-0.6895,-0.6961,-0.7016,-0.706,-0.7116,-0.7145,-0.7152,-0.7159,-0.7157,-0.7164,-0.7114,-0.71,-0.7153,-0.7153,-0.7153,-0.7153,-0.7153,-0.7153,-0.6495,-0.6561,-0.6583,-0.6668,-0.6702,-0.6764,-0.6792,-0.6832,-0.6869,-0.6943,-0.6989,-0.7017,-0.7061,-0.7121,-0.7171,-0.7182,-0.7202,-0.7208,-0.722,-0.7173,-0.7168,-0.7163,-0.7149,-0.7212,-0.7212,-0.7266,-0.7266,-0.7266]},{"header":{"parameterUnit":"m.s-1","parameterCategory":1,"la1":30.2991,"la2":30.254,"lo1":-89.0895,"lo2":-89.0444,"dy":0.0017,"dx":0.0017,"nx":28,"ny":28,"refTime":"2025-12-05T09:00:00:Z","depth":0,"parameterNumber":3,"parameterNumberName":"V-component_of_WINDS"},"data":[0,0,0,0,0,0,0,0,0,0,0,0,0,0,0,0,0,0,0,0,0,0,0,0,0,0,0,0,0,0,0,0,0,0,0,0,0,0,0,0,0,0,0,0,0,0,0,0,0,0,0,0,0,0,0,0,0,0,-7.2976,-7.2977,0,-7.3068,-7.3069,-7.307,-7.2892,-7.2886,-7.2881,-7.2875,-7.2967,-7.2975,-7.2983,0,0,0,0,0,0,0,0,0,0,0,0,0,-7.2645,-7.2652,-7.2976,-7.2977,-7.2978,-7.3068,-7.3069,-7.307,-7.2893,-7.2886,-7.2879,-7.2872,-7.2965,-7.2974,-7.2983,0,0,0,0,0,0,0,0,0,0,0,0,0,-7.2768,-7.2655,-7.2976,-7.2901,-7.2895,-7.3067,-7.3069,-7.307,-7.2895,-7.2886,-7.2877,-7.2869,-7.2961,-7.2973,-7.2985,-7.3234,0,0,-7.3021,-7.3026,0,0,0,0,0,0,0,0,-7.2762,-7.2781,-7.2911,-7.2906,-7.29,-7.296,-7.2986,-7.3125,-7.2897,-7.2895,-7.2875,-7.2865,-7.2972,-7.2982,-7.3018,-7.3238,-7.3242,-7.3022,-7.3029,-7.3034,-7.3038,0,0,0,0,0,0,0,-7.2753,-7.2776,-7.3012,-7.2913,-7.2906,-7.2862,-7.287,-7.3011,-7.2981,-7.2894,-7.2882,-7.2895,-7.2967,-7.3008,-7.3019,-7.3243,-7.3022,-7.3032,-7.3039,-7.3044,-7.3672,-7.3681,0,0,0,0,0,0,-7.2755,-7.277,-7.3009,-7.3015,-7.2808,-7.2875,-7.2884,-7.2949,-7.2979,-7.2975,-7.2903,-7.2887,-7.2992,-7.3006,-7.3022,-7.3317,-7.3034,-7.3045,-7.3052,-7.3663,-7.3674,-7.3685,0,0,0,0,0,0,-7.2748,-7.2778,-7.3005,-7.2889,-7.2915,-7.289,-7.2965,-7.2956,-7.2996,-7.2985,-7.2979,-7.295,-7.2985,-7.3005,-7.3183,-7.3317,-7.3051,-7.3061,-7.3652,-7.3666,-7.368,-7.3908,0,0,0,0,0,0,-7.2739,-7.2776,-7.2871,-7.2893,-7.2922,-7.3166,-7.2973,-7.2964,-7.3017,-7.2997,-7.3028,-7.3025,-7.298,-7.3166,-7.3195,-7.3329,-7.3071,-7.3639,-7.3658,-7.3675,-7.3889,-7.3929,-7.3963,0,0,0,0,0,-7.2728,-7.2931,-7.2877,-7.2907,-7.304,-7.3174,-7.3191,-7.3136,-7.3029,-7.3124,-7.3117,-7.3024,-7.3298,-7.3186,-7.3216,-7.3356,-7.3631,-7.3653,-7.3674,-7.3872,-7.3921,-7.3962,0,0,0,0,0,0,-7.2925,-7.2932,-7.2873,-7.3088,-7.3132,-7.3144,-7.3262,-7.3189,-7.3263,-7.3242,-7.3169,-7.3178,-7.337,-7.338,-7.3255,-7.3599,-7.3446,-7.3475,-7.3586,-7.3632,-7.3669,-7.3663,-7.308,0,0,0,0,0,-7.2994,-7.3103,-7.3103,-7.3294,-7.3319,-7.3288,-7.3344,-7.3298,-7.334,-7.3357,-7.3363,-7.3407,-7.3503,-7.3568,-7.3655,-7.3888,-7.3893,-7.3999,-7.4037,-7.4067,-7.4094,-7.4219,-7.4267,-7.3756,-7.3755,-7.3755,0,0,-7.3137,-7.3154,-7.3228,-7.3334,-7.3362,-7.3477,-7.3304,-7.3432,-7.3517,-7.3376,-7.3545,-7.3551,-7.3595,-7.3803,-7.3894,-7.3817,-7.4236,-7.4095,-7.4119,-7.4129,-7.4246,-7.4295,-7.4338,-7.377,-7.3767,-7.3765,0,0,-7.3456,-7.348,-7.3642,-7.3675,-7.3721,-7.3698,-7.3738,-7.3761,-7.376,-7.3928,-7.3826,-7.3924,-7.4091,-7.4127,-7.4167,-7.4501,-7.4419,-7.4532,-7.4727,-7.485,-7.489,-7.4925,-7.5047,-7.5091,-7.4557,-7.4558,-7.4558,0,-7.3628,-7.3798,-7.3735,-7.3872,-7.3922,-7.38,-7.3964,-7.3998,-7.407,-7.4108,-7.402,-7.4227,-7.4248,-7.4463,-7.4545,-7.458,-7.4623,-7.4529,-7.4889,-7.4924,-7.4956,-7.5071,-7.5117,-7.4571,-7.457,-7.4569,-7.4567,0,-7.4008,-7.4127,-7.4253,-7.4327,-7.4391,-7.454,-7.45,-7.4571,-7.452,-7.4507,-7.468,-7.4701,-7.4791,-7.4838,-7.4788,-7.5047,-7.4998,-7.4901,-7.4746,-7.502,-7.5127,-7.517,-7.4591,-7.4586,-7.4582,-7.4579,0,0,-7.4456,-7.4494,-7.4541,-7.4574,-7.4616,-7.4706,-7.485,-7.4939,-7.5003,-7.5056,-7.5176,-7.532,-7.5231,-7.5277,-7.523,-7.5338,-7.5604,-7.5228,-7.5228,-7.5299,-7.5891,-7.5966,-7.6017,-7.5548,-7.5556,-7.5562,-7.5888,0,-7.4775,-7.5024,-7.4972,-7.5216,-7.5326,-7.5213,-7.5338,-7.5377,-7.5369,-7.546,-7.5449,-7.5554,-7.5428,-7.5455,-7.5556,-7.555,-7.5722,-7.5525,-7.5659,-7.5665,-7.5655,-7.6073,-7.6151,-7.6458,-7.5929,-7.5936,-7.5941,0,-7.5181,-7.5252,-7.5508,-7.5533,-7.5577,-7.5691,-7.5769,-7.5858,-7.59,-7.5886,-7.5938,-7.587,-7.6012,-7.5855,-7.605,-7.5918,-7.5969,-7.5974,-7.5984,-7.5997,-7.5822,-7.6099,-7.6554,-7.6601,-7.6006,-7.6001,-7.5996,0,-7.5485,-7.5644,-7.5818,-7.5849,-7.5882,-7.5965,-7.5983,-7.6016,-7.6073,-7.6141,-7.6178,-7.6261,-7.6307,-7.6372,-7.6329,-7.6217,-7.6533,-7.637,-7.6526,-7.6528,-7.6599,-7.6596,-7.7072,-7.6629,-7.6628,-7.6627,-7.6626,0,-7.5848,-7.601,-7.5955,-7.6063,-7.6241,-7.6178,-7.6356,-7.6359,-7.639,-7.6496,-7.6401,-7.6502,-7.6437,-7.6533,-7.65,-7.6668,-7.6689,-7.6682,-7.6671,-7.6692,-7.6694,-7.6726,-7.6705,-7.664,-7.6637,-7.6634,-7.6632,0,-7.6219,-7.6189,-7.6372,-7.6388,-7.6396,-7.6527,-7.6541,-7.6641,-7.6625,-7.676,-7.6788,-7.6764,-7.6872,-7.6834,-7.6949,-7.6926,-7.7141,-7.7102,-7.7128,-7.7119,-7.7278,-7.7264,-7.7794,-7.7861,-7.7373,-7.7377,-7.7381,0,-7.6454,-7.6577,-7.6607,-7.6672,-7.6697,-7.6802,-7.686,-7.6803,-7.6868,-7.6925,-7.7019,-7.7118,-7.7195,-7.7373,-7.7365,-7.7453,-7.7416,-7.7595,-7.7429,-7.7446,-7.7422,-7.7416,-7.7429,-7.763,-7.7635,-7.764,-7.7644,0,-7.6876,-7.6855,-7.6944,-7.7029,-7.7102,-7.7165,-7.7219,-7.7277,-7.7223,-7.73,-7.741,-7.7471,-7.7589,-7.769,-7.7768,-7.7785,-7.7707,-7.7696,-7.7737,-7.7761,-7.7772,-7.777,-7.7222,-7.7685,-7.7681,-7.7678,-7.7675,-7.7674,-7.7188,-7.7292,-7.733,-7.7432,-7.7467,-7.7521,-7.7616,-7.7613,-7.7704,-7.7797,-7.7756,-7.7884,-7.7922,-7.802,-7.8048,-7.8147,-7.8077,-7.8136,-7.8151,-7.8168,-7.8189,-7.7755,-7.816,-7.8159,-7.8158,-7.8157,-7.8156,0,-7.7607,-7.7626,-7.772,-7.7801,-7.7881,-7.78,-7.7856,-7.7929,-7.8043,-7.8086,-7.8164,-7.8291,-7.8388,-7.8388,-7.8478,-7.8557,-7.8524,-7.8583,-7.8578,-7.8583,-7.8245,-7.8202,-7.8609,-7.8609,-7.8609,-7.8608,-7.8608,-7.8608,-7.7834,-7.8007,-7.7991,-7.8179,-7.8196,-7.8322,-7.8361,-7.841,-7.8444,-7.859,-7.8671,-7.867,-7.8696,-7.8787,-7.8873,-7.887,-7.8909,-7.8983,-7.8967,-7.8651,-7.8607,-7.8564,-7.8523,-7.8991,-7.8991,-7.9297,-7.93,-7.9302]}]]